Weather History for Tullahoma, TN

Change the Weather History Date:

Saturday, September 1, 2012

  Actual Average Record
Temperature  
Mean Temperature 80 °F -  
Max Temperature 86 °F 86 °F 87 °F (2014)
Min Temperature 73 °F 64 °F 69 °F (2014)
Cooling Degree Days 14    
Growing Degree Days 30 (Base 50)    
Moisture  
Dew Point 71 °F    
Average Humidity 79    
Maximum Humidity 94    
Minimum Humidity 58    
Precipitation  
Precipitation 0.00 in - - ()
Sea Level Pressure  
Sea Level Pressure 30.14 in    
Wind  
Wind Speed 5 mph ()    
Max Wind Speed 13 mph    
Max Gust Speed -    
Visibility 10.0 miles    
Events      
Averages and records for this station are not official NWS values.
T = Trace of Precipitation, MM = Missing Value Source: Averaged Metar Reports

Daily Weather History Graph

Daily Weather History Graph

Search for Another Location

Airport:

Trip Planner

Search our weather history database for the weather conditions in past years. The results will help you decide how hot, cold, wet, or windy it might be!

Date:

Astronomy

Sep. 01, 2012 Rise Set
Actual Time 6:17 AM CDT 7:11 PM CDT
Civil Twilight 5:51 AM CDT 7:37 PM CDT
Nautical Twilight 5:20 AM CDT 8:07 PM CDT
Astronomical Twilight 4:49 AM CDT 8:39 PM CDT
Moon 7:33 PM CDT (9/1) 7:19 AM CDT (9/1)
Length of Visible Light 13h 45m
Length of Day
12h 53m
Full, 99% of the Moon is Illuminated
Sep 1
Full
Sep 8
Last Quarter
Sep 15
New
Sep 22
First Quarter
Sep 29
Full

Hourly Weather History & Observations

Time (CDT) Temp. Heat Index Dew Point Humidity Pressure Visibility Wind Dir Wind Speed Gust Speed Precip Events Conditions
12:15 AM 75.2 °F - 69.8 °F 83% 30.16 in 10.0 mi Calm Calm - N/A   Clear
12:35 AM 75.2 °F - 69.8 °F 83% 30.16 in 10.0 mi SSE 4.6 mph - N/A   Clear
1:15 AM 75.2 °F - 69.8 °F 83% 30.16 in 10.0 mi SSE 3.5 mph - N/A   Scattered Clouds
1:35 AM 75.2 °F - 69.8 °F 83% 30.16 in 10.0 mi Calm Calm - N/A   Mostly Cloudy
1:55 AM 75.2 °F - 69.8 °F 83% 30.16 in 10.0 mi SSE 3.5 mph - N/A   Partly Cloudy
2:15 AM 75.2 °F - 69.8 °F 83% 30.15 in 10.0 mi South 5.8 mph - N/A   Clear
2:35 AM 73.4 °F - 69.8 °F 88% 30.15 in 10.0 mi South 4.6 mph - N/A   Clear
2:55 AM 75.2 °F - 69.8 °F 83% 30.16 in 10.0 mi South 5.8 mph - N/A   Clear
3:15 AM 75.2 °F - 69.8 °F 83% 30.15 in 10.0 mi South 4.6 mph - N/A   Clear
3:35 AM 73.4 °F - 69.8 °F 88% 30.15 in 10.0 mi Calm Calm - N/A   Clear
3:55 AM 73.4 °F - 69.8 °F 88% 30.15 in 10.0 mi Calm Calm - N/A   Clear
4:15 AM 73.4 °F - 69.8 °F 88% 30.16 in 10.0 mi Calm Calm - N/A   Clear
4:35 AM 73.4 °F - 69.8 °F 88% 30.16 in 10.0 mi South 4.6 mph - N/A   Scattered Clouds
5:15 AM 73.4 °F - 69.8 °F 88% 30.16 in 10.0 mi SSE 4.6 mph - N/A   Mostly Cloudy
5:35 AM 75.2 °F - 69.8 °F 83% 30.17 in 10.0 mi South 4.6 mph - N/A   Overcast
5:55 AM 75.2 °F - 69.8 °F 83% 30.17 in 10.0 mi South 3.5 mph - N/A   Overcast
6:15 AM 75.2 °F - 71.6 °F 89% 30.18 in 10.0 mi SSW 8.1 mph - N/A   Overcast
6:35 AM 73.4 °F - 71.6 °F 94% 30.19 in 10.0 mi SSW 6.9 mph - N/A   Overcast
6:55 AM 73.4 °F - 71.6 °F 94% 30.19 in 10.0 mi South 4.6 mph - N/A   Overcast
7:15 AM 73.4 °F - 71.6 °F 94% 30.19 in 10.0 mi South 4.6 mph - N/A   Overcast
7:35 AM 73.4 °F - 71.6 °F 94% 30.20 in 10.0 mi South 5.8 mph - N/A   Overcast
7:55 AM 75.2 °F - 71.6 °F 89% 30.20 in 10.0 mi SSW 5.8 mph - N/A   Mostly Cloudy
8:15 AM 75.2 °F - 71.6 °F 89% 30.20 in 10.0 mi SSW 6.9 mph - N/A   Overcast
8:35 AM 75.2 °F - 71.6 °F 89% 30.20 in 10.0 mi South 6.9 mph - N/A   Mostly Cloudy
8:55 AM 75.2 °F - 71.6 °F 89% 30.20 in 9.0 mi South 8.1 mph - N/A   Overcast
9:15 AM 75.2 °F - 71.6 °F 89% 30.20 in 10.0 mi SW 9.2 mph - N/A   Overcast
9:35 AM 77.0 °F - 71.6 °F 83% 30.21 in 10.0 mi SSW 9.2 mph - N/A   Overcast
10:15 AM 78.8 °F - 71.6 °F 78% 30.21 in 10.0 mi SSW 5.8 mph - N/A   Mostly Cloudy
10:35 AM 78.8 °F - 71.6 °F 78% 30.21 in 10.0 mi SSW 8.1 mph - N/A   Mostly Cloudy
10:55 AM 78.8 °F - 71.6 °F 78% 30.20 in 10.0 mi South 10.4 mph - N/A   Mostly Cloudy
11:15 AM 80.6 °F 84.6 °F 71.6 °F 74% 30.20 in 10.0 mi SSW 11.5 mph - N/A   Mostly Cloudy
11:35 AM 80.6 °F 84.6 °F 71.6 °F 74% 30.19 in 10.0 mi South 8.1 mph - N/A   Overcast
11:55 AM 80.6 °F 84.6 °F 71.6 °F 74% 30.19 in 8.0 mi South 5.8 mph - N/A   Overcast
12:15 PM 80.6 °F 84.6 °F 71.6 °F 74% 30.18 in 10.0 mi SSE 8.1 mph - N/A   Mostly Cloudy
12:35 PM 82.4 °F 87.2 °F 71.6 °F 70% 30.17 in 10.0 mi SSE 11.5 mph - N/A   Mostly Cloudy
12:55 PM 82.4 °F 87.2 °F 71.6 °F 70% 30.16 in 10.0 mi South 6.9 mph - N/A   Scattered Clouds
1:15 PM 84.2 °F 89.6 °F 71.6 °F 66% 30.15 in 10.0 mi SSW 10.4 mph - N/A   Partly Cloudy
1:35 PM 84.2 °F 89.6 °F 71.6 °F 66% 30.14 in 10.0 mi SSW 10.4 mph - N/A   Clear
1:55 PM 84.2 °F 89.6 °F 71.6 °F 66% 30.13 in 10.0 mi South 11.5 mph - N/A   Clear
2:15 PM 86.0 °F 91.8 °F 71.6 °F 62% 30.13 in 10.0 mi South 9.2 mph - N/A   Partly Cloudy
2:35 PM 84.2 °F 89.6 °F 71.6 °F 66% 30.11 in 10.0 mi South 11.5 mph - N/A   Partly Cloudy
2:55 PM 84.2 °F 89.6 °F 71.6 °F 66% 30.10 in 10.0 mi South 11.5 mph - N/A   Partly Cloudy
3:15 PM 86.0 °F 91.8 °F 71.6 °F 62% 30.09 in 10.0 mi South 11.5 mph - N/A   Clear
3:35 PM 84.2 °F 89.6 °F 71.6 °F 66% 30.09 in 10.0 mi South 10.4 mph - N/A   Clear
4:15 PM 86.0 °F 90.4 °F 69.8 °F 58% 30.08 in 10.0 mi SSW 10.4 mph - N/A   Clear
4:35 PM 86.0 °F 91.8 °F 71.6 °F 62% 30.07 in 10.0 mi South 8.1 mph - N/A   Clear
4:55 PM 84.2 °F 89.6 °F 71.6 °F 66% 30.07 in 10.0 mi South 10.4 mph - N/A   Clear
5:15 PM 82.4 °F 86.3 °F 69.8 °F 66% 30.07 in 10.0 mi South 12.7 mph - N/A   Clear
5:35 PM 82.4 °F 87.2 °F 71.6 °F 70% 30.07 in 10.0 mi South 10.4 mph - N/A   Clear
5:55 PM 80.6 °F 84.6 °F 71.6 °F 74% 30.07 in 10.0 mi South 9.2 mph - N/A   Clear
6:15 PM 80.6 °F 84.6 °F 71.6 °F 74% 30.07 in 10.0 mi South 8.1 mph - N/A   Clear
6:35 PM 80.6 °F 84.6 °F 71.6 °F 74% 30.07 in 10.0 mi South 5.8 mph - N/A   Clear
6:55 PM 80.6 °F 84.6 °F 71.6 °F 74% 30.07 in 10.0 mi South 6.9 mph - N/A   Clear
7:15 PM 78.8 °F - 71.6 °F 78% 30.07 in 10.0 mi South 6.9 mph - N/A   Clear
7:35 PM 78.8 °F - 71.6 °F 78% 30.07 in 10.0 mi South 5.8 mph - N/A   Clear
7:55 PM 78.8 °F - 69.8 °F 74% 30.08 in 10.0 mi South 6.9 mph - N/A   Clear
8:15 PM 78.8 °F - 69.8 °F 74% 30.08 in 10.0 mi South 5.8 mph - N/A   Clear
8:35 PM 77.0 °F - 69.8 °F 78% 30.08 in 10.0 mi South 6.9 mph - N/A   Clear
9:15 PM 75.2 °F - 69.8 °F 83% 30.07 in 10.0 mi South 9.2 mph - N/A   Clear
9:35 PM 75.2 °F - 69.8 °F 83% 30.06 in 10.0 mi South 10.4 mph - N/A   Clear
9:55 PM 75.2 °F - 69.8 °F 83% 30.06 in 10.0 mi South 10.4 mph - N/A   Clear
10:15 PM 75.2 °F - 69.8 °F 83% 30.06 in 10.0 mi South 9.2 mph - N/A   Clear
10:35 PM 75.2 °F - 69.8 °F 83% 30.08 in 10.0 mi SSW 11.5 mph - N/A   Clear
11:15 PM 75.2 °F - 69.8 °F 83% 30.09 in 10.0 mi South 6.9 mph - N/A   Clear
11:35 PM 73.4 °F - 69.8 °F 88% 30.08 in 10.0 mi South 5.8 mph - N/A   Clear
11:55 PM 73.4 °F - 69.8 °F 88% 30.08 in 10.0 mi South 4.6 mph - N/A   Clear